RH
88 93 100 105 108 106 101 95 90 89 92 96 100 102 104 106 108 107 104 100 95 91 88 84 83 82 83 85 86 86 86 84 81 79 78 77 76 76 76 75 74 75
77 79 83 89 95 101 105 105 101 95 91 90 94 98 102 104 105 105 105 105 105 102 99 95 93 89 85 83 82 83 85 88 90 91 91 90 87 84 82 78 75 73
74 75 77 79 82 86 92 97 101 101 97 92 90 92 96 101 105 106 105 105 106 107 105 104 103 102 98 93 90 86 84 84 87 89 92 95 97 96 94 90 85 81
55 59 63 66 70 73 77 82 89 96 100 100 96 92 91 93 97 102 104 105 107 107 106 106 105 105 104 103 103 102 97 93 90 87 87 90 94 98 99 99 97 95
30 33 36 40 44 49 53 59 65 73 83 93 100 101 99 95 93 95 97 100 103 104 104 105 105 104 103 102 105 108 107 106 102 97 94 92 91 93 95 96 98 100
26 26 26 27 28 30 32 35 38 43 50 60 72 84 94 99 100 100 100 100 100 99 99 100 100 102 103 101 102 104 105 107 107 105 103 100 97 97 96 94 94 94
28 28 28 28 28 28 28 29 29 29 30 32 37 46 57 70 81 89 96 101 103 103 102 99 98 99 99 99 100 101 102 104 105 106 105 104 103 102 102 100 98 96
29 28 28 29 29 29 30 30 31 31 30 29 28 28 30 35 43 52 62 73 84 93 99 102 103 102 101 100 100 100 98 99 101 104 105 106 106 105 104 104 103 103
29 29 29 28 28 28 29 29 30 31 31 32 32 30 29 28 28 30 33 38 46 56 66 76 85 91 95 99 101 100 98 96 96 97 98 101 103 103 104 106 106 106
28 29 29 29 28 27 27 27 28 29 30 31 32 32 32 32 31 30 29 29 29 32 36 41 48 56 64 71 78 82 85 88 89 91 92 95 98 98 100 102 102 104
22 23 24 25 26 26 26 26 26 27 27 28 29 31 32 32 33 32 32 31 31 30 30 30 31 33 36 41 45 50 54 59 63 67 72 77 83 87 91 93 94 97
16 17 17 17 18 19 20 21 22 23 24 24 25 27 29 30 31 32 32 33 33 33 32 32 32 32 31 32 33 34 36 38 39 41 43 46 50 55 60 65 68 72
12 14 15 14 14 13 14 15 16 17 18 19 20 22 23 25 27 29 30 31 32 33 33 33 33 33 33 33 33 33 33 33 34 35 35 35 36 36 37 39 41 43
10 11 12 13 13 12 12 11 11 12 13 14 15 16 17 18 20 22 25 27 29 31 33 34 34 34 34 34 33 33 33 33 34 34 34 35 35 36 36 36 36 36
7 7 8 10 10 11 12 11 11 11 11 11 12 13 13 14 15 16 17 19 21 24 27 29 32 34 35 35 35 35 34 34 34 34 34 34 35 35 36 36 36 36
6 6 6 6 7 8 9 10 11 11 11 12 12 12 12 13 13 13 14 14 15 16 18 20 23 26 29 32 34 35 36 36 36 35 35 35 35 35 36 35 35 35
5 6 6 5 5 6 6 7 8 9 9 10 11 12 13 14 14 14 15 15 15 15 15 15 16 17 19 21 23 26 29 31 34 36 38 38 38 38 37 36 35 35
5 5 5 5 5 5 5 6 6 6 7 8 8 9 10 11 13 14 15 15 16 16 17 17 17 17 17 18 18 18 19 21 24 28 31 34 36 36 36 36 37 37
5 5 5 5 5 5 5 5 6 6 6 6 7 7 7 8 9 10 11 12 12 13 14 15 16 16 17 18 19 19 19 19 21 22 24 25 26 27 29 31 34 35
5 5 5 5 5 5 5 5 6 6 6 6 6 7 7 7 7 8 8 9 9 10 10 11 11 12 13 14 15 17 18 19 22 23 24 23 23 23 24 26 27 29
5 5 5 5 5 5 5 5 5 5 6 6 6 6 7 7 7 7 8 8 8 8 8 8 9 9 9 10 10 11 12 14 16 18 20 21 22 23 25 26 27 27
5 5 5 5 5 5 5 5 5 5 6 6 6 6 6 7 7 7 7 8 8 8 8 8 8 9 9 9 9 9 10 10 10 11 13 14 15 17 19 22 23 24
5 5 5 5 5 6 6 6 6 6 6 6 6 6 6 6 7 7 7 7 7 8 8 8 8 9 9 9 9 10 10 10 10 10 11 11 11 12 13 14 14 15
5 5 5 5 5 5 6 6 6 6 6 6 6 6 6 7 7 7 7 7 7 7 8 8 8 9 9 9 10 10 11 11 11 11 12 12 12 12 11 11 11 11
5 5 5 5 5 5 5 5 5 5 5 6 6 6 6 6 6 7 7 7 7 7 7 8 8 8 8 9 9 10 10 11 12 13 13 13 13 12 12 11 11 11
5 5 5 5 5 5 5 5 5 5 5 5 5 5 6 6 6 6 6 6 7 7 7 7 8 8 8 8 8 9 10 10 11 12 13 13 13 12 12 12 12 11
Wind_Speed
100 101 102 103 104 105 105 106 106 106 107 107 107 107 108 108 109 110 110 111 111 111 111 111 111 111 111 111 111 110 110 109 109 109 109 108 108 109 109 110 110 111
101 101 102 103 104 105 105 106 107 107 108 109 110 111 111 111 112 112 113 113 113 114 114 114 114 114 114 115 115 114 114 113 113 112 111 111 111 110 110 111 111 111
104 104 104 104 105 105 106 106 107 108 108 109 110 111 112 114 115 116 116 116 117 117 117 118 118 118 118 118 118 118 117 117 117 116 116 115 114 113 113 113 113 113
106 107 107 107 108 108 108 108 109 109 110 110 110 111 112 114 115 117 118 119 120 120 120 120 121 121 121 121 121 121 120 120 120 120 119 119 118 117 117 116 116 116
106 106 108 108 109 110 110 110 111 111 112 112 113 113 113 114 115 116 118 119 121 122 123 123 123 124 124 124 124 124 124 124 123 123 122 122 121 121 121 120 119 119
104 105 106 107 108 109 110 111 111 112 113 114 115 116 116 116 117 117 118 119 120 122 123 124 125 126 126 126 126 126 126 126 126 126 126 125 125 125 124 124 123 123
103 104 105 106 107 109 109 110 111 111 111 112 114 115 116 118 119 120 120 121 121 122 123 124 125 126 127 128 128 129 129 129 129 129 129 129 129 129 128 128 127 127
104 105 106 107 107 108 109 110 111 111 111 112 112 113 114 115 117 119 120 122 123 124 125 125 126 127 127 128 129 130 130 130 130 131 131 132 132 132 132 132 132 131
105 106 107 108 108 109 110 110 111 112 112 112 112 112 112 113 114 115 117 119 121 123 124 125 127 128 129 130 130 131 131 131 131 131 132 132 133 133 134 135 135 135
105 106 107 109 109 110 111 111 112 112 113 113 114 114 113 113 113 113 114 115 117 119 121 122 124 126 128 129 131 132 132 133 133 133 133 133 133 134 134 135 135 136
105 106 107 108 109 110 111 112 112 113 113 114 114 115 115 115 114 114 114 114 115 116 117 119 120 122 124 126 128 130 131 132 133 134 134 134 134 134 135 135 135 135
104 106 107 108 109 109 110 111 112 113 113 114 115 115 116 116 116 115 115 115 115 115 116 117 118 119 121 122 124 125 127 128 130 131 132 133 133 134 134 135 135 135
101 103 105 107 108 108 109 109 110 112 113 113 114 114 115 116 116 117 117 116 116 116 116 117 117 118 119 120 121 123 124 125 126 127 128 129 130 131 132 133 133 134
99 100 102 104 105 106 106 107 108 109 111 112 113 114 114 114 115 116 116 117 117 117 118 118 118 118 119 119 120 121 122 123 124 125 126 126 127 128 129 130 131 131
100 99 99 100 101 102 103 104 105 106 107 108 110 111 112 113 114 114 115 115 116 117 117 118 118 119 119 120 120 120 121 121 122 123 124 125 125 126 127 128 129 130
97 98 99 99 98 99 100 101 102 103 103 104 105 106 108 109 110 112 113 114 115 115 116 116 117 118 119 120 120 121 121 121 121 121 122 123 124 125 126 127 128 129
91 93 95 96 96 96 97 98 99 100 101 101 101 102 103 105 106 107 109 110 112 113 114 115 116 116 117 118 119 120 120 120 121 121 122 123 123 124 125 126 127 127
86 88 90 92 92 92 93 94 95 96 98 99 99 100 100 102 103 104 106 107 109 110 111 113 114 114 115 116 117 117 118 118 119 120 121 123 124 125 125 125 126 126
84 85 87 87 87 87 87 88 89 91 93 95 97 98 98 99 100 102 103 105 106 108 109 110 111 112 113 114 115 116 116 116 116 118 119 121 122 123 123 124 125 125
81 82 83 84 84 83 82 82 83 85 87 89 91 93 95 96 97 98 100 102 103 105 106 107 108 109 110 111 112 113 114 114 115 116 117 118 119 120 120 121 122 123
78 78 79 80 80 80 80 79 79 79 81 83 85 87 89 90 92 93 95 96 98 100 102 103 104 105 107 108 109 110 110 111 112 113 115 116 117 118 118 119 120 121
74 74 75 76 77 77 77 76 76 76 77 78 79 81 82 84 86 87 89 91 92 94 96 97 98 100 102 103 104 105 106 107 108 109 111 113 114 114 116 118 119 120
72 72 72 73 74 74 74 74 74 74 75 76 76 78 79 80 82 83 84 86 87 89 90 91 92 94 96 97 99 100 101 102 103 104 106 108 109 111 112 114 116 117
70 70 70 71 71 71 72 72 72 72 73 73 74 75 76 77 79 80 81 83 84 85 86 87 88 89 90 92 93 94 95 97 98 100 101 103 105 107 109 110 110 111
68 68 68 68 69 69 69 69 70 70 71 71 72 72 74 75 76 77 78 79 81 81 82 83 84 85 86 87 88 89 90 92 93 95 97 99 100 102 103 104 104 105
66 65 66 66 66 67 67 67 67 68 68 69 69 70 71 72 73 74 75 76 77 78 78 79 81 82 83 84 85 85 86 88 89 91 93 94 96 96 97 98 98 99
Wind_Direction
266 265 265 264 263 263 262 262 261 261 260 260 259 258 257 257 257 257 257 258 258 258 258 257 257 257 257 257 257 257 257 257 257 256 256 256 255 255 255 255 255 255
266 265 264 264 263 263 262 261 261 260 260 260 259 259 258 258 257 257 257 257 257 257 257 258 258 257 257 257 257 257 257 257 257 257 257 257 256 256 256 256 256 256
266 265 264 263 263 262 262 262 261 260 260 259 259 259 258 258 258 257 257 257 257 256 256 257 257 257 258 258 258 258 257 257 257 257 257 257 257 257 257 257 257 256
266 265 264 264 263 262 261 261 261 260 260 259 258 258 257 257 257 257 257 257 257 257 257 257 257 257 257 257 258 258 258 258 258 258 257 257 257 257 257 257 257 257
267 266 265 265 264 263 262 260 260 259 259 259 258 258 257 257 256 256 256 256 257 257 257 257 257 257 257 257 257 257 257 258 258 258 258 258 258 258 257 257 257 256
267 266 266 265 265 264 263 262 261 259 259 258 258 257 257 257 257 256 256 256 256 256 256 257 257 257 257 257 257 257 256 257 257 258 258 258 258 258 258 258 258 257
266 266 266 265 265 264 264 263 262 261 260 259 258 257 257 256 256 256 256 256 256 256 256 256 256 257 257 257 257 257 257 257 256 257 257 257 258 258 258 259 259 259
266 266 265 265 264 264 264 263 263 262 261 260 259 258 257 256 256 256 255 255 255 255 255 256 256 256 257 257 257 257 257 257 257 257 257 257 257 257 257 258 258 258
265 265 265 264 264 263 263 263 263 263 262 262 261 260 259 257 257 256 255 255 255 255 255 255 255 256 256 256 257 257 257 257 257 257 257 257 257 257 257 257 257 258
265 264 264 263 263 263 263 262 262 262 262 262 262 261 260 259 258 257 256 256 255 255 255 254 254 255 255 255 256 256 257 257 258 258 257 257 257 257 257 257 257 257
266 265 264 263 262 262 262 262 261 261 261 261 261 261 261 260 260 259 258 257 256 256 255 255 255 255 255 255 255 255 256 256 257 257 258 258 258 258 257 257 257 257
266 266 265 264 263 262 262 261 261 261 260 260 260 260 260 260 260 260 259 258 258 257 256 256 256 255 255 255 255 255 256 256 256 256 257 257 257 258 258 258 258 258
267 266 265 265 264 263 262 262 261 261 261 260 260 260 260 259 260 260 259 259 259 258 258 257 256 256 256 256 256 256 256 256 256 256 257 257 257 257 258 258 258 258
269 267 266 266 265 265 264 263 262 261 261 261 261 261 260 260 260 259 259 259 259 259 258 258 258 257 257 256 256 256 256 256 256 257 257 257 257 257 258 258 258 258
271 270 269 267 266 266 265 265 264 263 262 262 261 261 261 261 261 261 261 260 260 259 259 259 258 258 258 258 257 257 257 256 256 257 257 257 257 257 258 258 258 258
271 271 271 270 268 267 266 266 265 265 264 263 262 262 261 261 261 261 261 261 261 261 260 260 259 259 258 258 258 258 258 258 257 257 257 257 258 258 258 258 258 258
271 270 270 270 269 268 267 266 265 265 265 264 263 263 262 262 262 261 261 261 261 261 261 261 261 260 260 259 259 259 258 258 258 258 258 258 258 258 258 258 258 258
272 271 270 270 269 268 267 266 266 265 265 265 264 263 263 262 262 261 261 261 261 261 261 261 261 261 261 260 260 260 259 259 259 259 259 258 258 258 258 258 259 259
273 272 272 271 271 270 269 268 267 266 265 265 264 264 263 263 262 262 261 261 261 261 261 261 261 261 261 260 260 260 260 260 260 259 259 259 259 259 259 259 259 259
274 273 273 273 273 272 270 269 268 267 266 265 264 264 264 264 263 263 262 262 262 262 261 261 261 261 261 261 261 261 261 260 260 260 260 260 260 259 259 259 259 259
275 274 273 273 273 272 271 270 269 267 266 265 264 264 263 263 263 263 262 262 262 262 262 262 262 262 262 262 262 261 261 261 260 260 260 260 260 260 260 260 260 259
276 275 274 273 272 272 272 271 270 269 267 266 265 264 264 263 263 262 262 262 261 261 262 262 262 262 262 262 262 262 262 262 262 261 261 261 261 260 260 260 260 260
277 276 275 274 273 272 271 271 270 269 268 267 266 265 264 264 263 263 262 262 261 261 261 261 262 262 262 262 263 263 263 263 263 262 262 262 262 261 261 260 260 259
277 276 275 274 273 273 272 271 270 269 268 267 267 266 265 264 264 263 263 263 262 262 262 261 261 262 262 262 262 263 263 263 263 263 262 262 262 261 261 261 260 260
277 276 275 275 274 273 272 271 271 270 269 268 267 267 266 265 264 264 264 263 263 263 262 262 262 262 262 262 262 262 262 263 263 263 263 263 262 262 262 262 262 262
277 276 276 275 274 273 272 271 270 270 269 269 268 267 267 266 266 265 265 264 264 264 264 263 263 262 262 262 262 262 262 262 263 263 263 263 263 263 263 263 263 263